Longmire, WA (98397)

7:46 PM PST on January 21, 2017 (GMT -0800)
Ashford | | Change Station

Elev 1935 ft 46.74 °N, 121.97 °W | Updated 1 minute ago

Overcast
Overcast
35.1 °F
Feels Like 35 °F
N
0.0
Wind Variable Wind from ESE

Today
High -- | Low -- °F
--% Chance of Precip.
Yesterday
High -- | Low -- °F
Precip. -- in
Pressure 29.56 in
Visibility 0.2 miles
Clouds
Windchill 35 °F
Dew Point 35 °F
Humidity 99%
Rainfall 0.13 in
Snow Depth Not available.
7:42 AM 4:54 PM
Waning Crescent, 30% visible
METAR KSMP 220256Z AUTO VRB04KT 1/4SM -SN FG VV002 00/M01 A2950 RMK AO2 SLP008 P0000 60000 I3000 T00001011 53023 $
Pressure 29.56 in
Visibility 0.2 miles
Clouds
Windchill 35 °F
Dew Point 35 °F
Humidity 99%
Rainfall 0.13 in
Snow Depth Not available.
7:42 AM 4:54 PM
Waning Crescent, 30% visible
METAR KSMP 220256Z AUTO VRB04KT 1/4SM -SN FG VV002 00/M01 A2950 RMK AO2 SLP008 P0000 60000 I3000 T00001011 53023 $

Get Your Daily Forecast Email!

Thanks for signing up!

Be on the lookout for a verification email in your inbox.

You'll start receiving the daily forecast at 8 AM.

×

10-Day Weather Forecast

Almanac

Astronomy

Jan. 21, 2017 Rise Set
Actual Time
Civil Twilight
Nautical Twilight
Astronomical Twilight
Moon
Length of Visible Light
Length of Day
Tomorrow will be .
, % of the Moon is Illuminated

Today's Extremes

State Highs State Lows

Community

WunderPhotos

Upload Photos

1,962,540 photos uploaded!

WunderBlog® & News

Nearby

Air Quality

  Air Quality AQ Index Pollutant
Not available.

Snow Depth

Station Depth Elevation

Earthquake Activity

City Distance Mag. Time & Date
Minimum magnitude displayed is 2.5.

Coastal Water Temperatures

Place Temperature

Stations

Nearby Weather Stations

Station Location Temp. Windchill Dew Point Humidity Wind Precip. Elev Updated Type
                   

Watches & Warnings

There are currently no watches in effect.